Weather History for KSBY - May, 2014

Change the Weather History Date:

Friday, May 23, 2014

  Actual Average Record
Temperature  
Mean Temperature 70 °F 64 °F  
Max Temperature 78 °F 75 °F 96 °F (1925)
Min Temperature 62 °F 54 °F 33 °F (2002)
Degree Days  
Heating Degree Days 0 3  
Month to date heating degree days 41 121  
Since 1 July heating degree days 4162 4401  
Cooling Degree Days 5 3  
Month to date cooling degree days 85 38  
Year to date cooling degree days 99 55  
Growing Degree Days 18 (Base 50)    
Moisture  
Dew Point 52 °F    
Average Humidity 65    
Maximum Humidity 93    
Minimum Humidity 36    
Precipitation  
Precipitation 0.00 in 0.13 in 1.80 in (1951)
Month to date precipitation 1.82 2.60  
Year to date precipitation 11.43 17.53  
Snow  
Snow 0.00 in 0.00 in 0.00 in (2002)
Month to date snowfall 0.0 0.0  
Since 1 July snowfall 22.5 9.3  
Snow Depth 0.00 in    
Sea Level Pressure  
Sea Level Pressure 29.91 in    
Wind  
Wind Speed 9 mph (WNW)    
Max Wind Speed 20 mph    
Max Gust Speed 26 mph    
Visibility 9 miles    
Events Fog    
T = Trace of Precipitation, MM = Missing Value Source: NWS Daily Summary

Daily Weather History Graph

Daily Weather History Graph

Search for Another Location

Airport or City:

Trip Planner

Search our weather history database for the weather conditions in past years. The results will help you decide how hot, cold, wet, or windy it might be!

Date:

Astronomy

May. 23, 2014 Rise Set
Actual Time 5:44 AM EDT 8:13 PM EDT
Civil Twilight 5:14 AM EDT 8:43 PM EDT
Nautical Twilight 4:36 AM EDT 9:21 PM EDT
Astronomical Twilight 3:55 AM EDT 10:03 PM EDT
Moon 2:33 AM EDT (5/23) 3:07 PM EDT (5/23)
Length of Visible Light 15h 29m
Length of Day
14h 28m
Waning Crescent, 27% of the Moon is Illuminated
May 23
Waning Crescent
May 28
New
Jun 5
First Quarter
Jun 13
Full
Jun 19
Last Quarter

Hourly Weather History & Observations

Time (EDT) Temp. Dew Point Humidity Pressure Visibility Wind Dir Wind Speed Gust Speed Precip Events Conditions
12:10 AM 64.4 °F 62.6 °F 94% 29.85 in 0.2 mi SW 3.5 mph - N/A Fog Fog
12:30 AM 66.2 °F 62.6 °F 88% 29.85 in 1.0 mi West 4.6 mph - N/A   Mist
12:34 AM 66.2 °F 62.6 °F 88% 29.85 in 3.0 mi West 4.6 mph - N/A   Scattered Clouds
12:54 AM 66.9 °F 64.0 °F 90% 29.87 in 5.0 mi SW 4.6 mph - N/A   Clear
1:54 AM 69.1 °F 61.0 °F 75% 29.86 in 10.0 mi WNW 8.1 mph - N/A   Clear
2:54 AM 66.0 °F 54.0 °F 65% 29.86 in 10.0 mi NW 6.9 mph - N/A   Clear
3:54 AM 63.0 °F 51.1 °F 65% 29.86 in 10.0 mi NNW 5.8 mph - N/A   Clear
4:54 AM 63.0 °F 50.0 °F 63% 29.87 in 10.0 mi NNW 10.4 mph - N/A   Clear
5:54 AM 62.1 °F 48.9 °F 62% 29.90 in 10.0 mi WNW 8.1 mph - N/A   Clear
6:54 AM 63.0 °F 48.9 °F 60% 29.91 in 10.0 mi WNW 8.1 mph - N/A   Clear
7:54 AM 64.9 °F 50.0 °F 58% 29.93 in 10.0 mi WNW 10.4 mph 17.3 mph N/A   Clear
8:54 AM 68.0 °F 50.0 °F 52% 29.94 in 10.0 mi NW 17.3 mph 23.0 mph N/A   Clear
9:54 AM 70.0 °F 50.0 °F 49% 29.94 in 10.0 mi NW 12.7 mph 19.6 mph N/A   Clear
10:54 AM 72.0 °F 52.0 °F 49% 29.94 in 10.0 mi West 9.2 mph 20.7 mph N/A   Clear
11:54 AM 73.0 °F 51.1 °F 46% 29.93 in 10.0 mi WNW 12.7 mph 21.9 mph N/A   Scattered Clouds
12:54 PM 73.9 °F 51.1 °F 45% 29.93 in 10.0 mi WNW 12.7 mph 20.7 mph N/A   Scattered Clouds
1:54 PM 75.0 °F 50.0 °F 41% 29.93 in 10.0 mi WNW 12.7 mph 20.7 mph N/A   Scattered Clouds
2:54 PM 75.9 °F 46.9 °F 36% 29.91 in 10.0 mi WNW 16.1 mph 21.9 mph N/A   Scattered Clouds
3:54 PM 75.9 °F 48.0 °F 37% 29.91 in 10.0 mi WNW 6.9 mph 20.7 mph N/A   Scattered Clouds
4:54 PM 75.9 °F 48.0 °F 37% 29.89 in 10.0 mi WNW 6.9 mph - N/A   Mostly Cloudy
5:54 PM 75.0 °F 50.0 °F 41% 29.89 in 10.0 mi NNW 10.4 mph - N/A   Partly Cloudy
6:54 PM 75.0 °F 50.0 °F 41% 29.90 in 10.0 mi WNW 5.8 mph - N/A   Mostly Cloudy
7:54 PM 73.0 °F 52.0 °F 48% 29.91 in 10.0 mi Calm Calm - N/A   Overcast
8:54 PM 71.1 °F 52.0 °F 51% 29.93 in 10.0 mi West 3.5 mph - N/A   Overcast
9:54 PM 72.0 °F 50.0 °F 46% 29.96 in 10.0 mi NW 8.1 mph - N/A   Overcast
10:54 PM 69.1 °F 46.0 °F 44% 29.98 in 10.0 mi NW 11.5 mph - N/A   Overcast
11:54 PM 66.0 °F 46.0 °F 48% 29.99 in 10.0 mi WNW 8.1 mph - N/A   Clear